YWLM Airport Information

Runway Information
Runway 12 Length 7999 ft width 148 ft
Elevation 30 ft Threshold 0 ft Heading 130
Runway 30 Length 7999 ft Width 148 ft
Elevation 17 ft Threshold 0 ft Heading 310
Airport Frequencies
Type APP Name WILLY APP Frequency 135.7 MHZ
Type ATIS Name ATIS Frequency 31.61 MHZ
Type CLD Name CLNC DEL Frequency 130.35 MHZ
Type CTAF Name CTAF Frequency 118.3 MHZ
Type FSS Name BRISBANE C Frequency 125.7 MHZ
Type GND Name GND Frequency 121.8 MHZ
Type TWR Name TWR Frequency 118.3 MHZ
Airport Navaids
Type TACAN Name Williamtown Frequency 113300 KHZ
Type NDB Name Williamtown Frequency 365 KHZ
Airport Weather Information & NOTAM
ADDS - METARS form results

(2247 UTC 27 November 2021)
Data provider http://aviationweather.gov/metar/data/
 
METAR text: YWLM 272240Z AUTO 21011KT 9999 -SHRA SCT009 SCT014 BKN023 18/17 Q1021 RESHRA
Conditions at: YWLM (WILLIAMTOWN ARP , AU) observed 2240 UTC 27 November 2021
Temperature: 18.0°C (64°F)
Dewpoint: 17.0°C (63°F) [RH = 94%]
Pressure (altimeter): 30.15 inches Hg (1021.0 mb)
Winds: from the SSW (210 degrees) at 13 MPH (11 knots; 5.7 m/s)
Visibility: 6 or more miles (10+ km)
Ceiling: 2300 feet AGL
Clouds: scattered clouds at 900 feet AGL
scattered clouds at 1400 feet AGL
broken clouds at 2300 feet AGL
Weather: -SHRA  (light rain showers)

METAR text: YWLM 272239Z AUTO 21011KT 9999 -SHRA SCT009 SCT014 BKN023 18/17 Q1021 RESHRA
Conditions at: YWLM (WILLIAMTOWN ARP , AU) observed 2239 UTC 27 November 2021
Temperature: 18.0°C (64°F)
Dewpoint: 17.0°C (63°F) [RH = 94%]
Pressure (altimeter): 30.15 inches Hg (1021.0 mb)
Winds: from the SSW (210 degrees) at 13 MPH (11 knots; 5.7 m/s)
Visibility: 6 or more miles (10+ km)
Ceiling: 2300 feet AGL
Clouds: scattered clouds at 900 feet AGL
scattered clouds at 1400 feet AGL
broken clouds at 2300 feet AGL
Weather: -SHRA  (light rain showers)

METAR text: YWLM 272230Z AUTO 18007KT 7000 -SHRA SCT011 BKN023 BKN030 18/17 Q1021 RESHRA
Conditions at: YWLM (WILLIAMTOWN ARP , AU) observed 2230 UTC 27 November 2021
Temperature: 18.0°C (64°F)
Dewpoint: 17.0°C (63°F) [RH = 94%]
Pressure (altimeter): 30.15 inches Hg (1021.0 mb)
Winds: from the S (180 degrees) at 8 MPH (7 knots; 3.6 m/s)
Visibility: 4 miles ( 7 km)
Ceiling: 2300 feet AGL
Clouds: scattered clouds at 1100 feet AGL
broken clouds at 2300 feet AGL
broken clouds at 3000 feet AGL
Weather: -SHRA  (light rain showers)

METAR text: YWLM 272216Z AUTO 18011KT 6000 SHRA SCT009 BKN014 BKN028 17/16 Q1021
Conditions at: YWLM (WILLIAMTOWN ARP , AU) observed 2216 UTC 27 November 2021
Temperature: 17.0°C (63°F)
Dewpoint: 16.0°C (61°F) [RH = 94%]
Pressure (altimeter): 30.15 inches Hg (1021.0 mb)
Winds: from the S (180 degrees) at 13 MPH (11 knots; 5.7 m/s)
Visibility: 4 miles ( 6 km)
Ceiling: 1400 feet AGL
Clouds: scattered clouds at 900 feet AGL
broken clouds at 1400 feet AGL
broken clouds at 2800 feet AGL
Weather: SHRA  (rain showers)

METAR text: YWLM 272200Z AUTO 19010KT 9999 // SCT013 SCT026 OVC034 18/17 Q1021
Conditions at: YWLM (WILLIAMTOWN ARP , AU) observed 2200 UTC 27 November 2021
Temperature: 18.0°C (64°F)
Dewpoint: 17.0°C (63°F) [RH = 94%]
Pressure (altimeter): 30.15 inches Hg (1021.0 mb)
Winds: from the S (190 degrees) at 12 MPH (10 knots; 5.1 m/s)
Visibility: 6 or more miles (10+ km)
Ceiling: 3400 feet AGL
Clouds: scattered clouds at 1300 feet AGL
scattered clouds at 2600 feet AGL
overcast cloud deck at 3400 feet AGL
Weather: no significant weather observed at this time

METAR text: YWLM 272152Z AUTO 20009KT 9999 // SCT013 SCT022 OVC033 17/16 Q1021
Conditions at: YWLM (WILLIAMTOWN ARP , AU) observed 2152 UTC 27 November 2021
Temperature: 17.0°C (63°F)
Dewpoint: 16.0°C (61°F) [RH = 94%]
Pressure (altimeter): 30.15 inches Hg (1021.0 mb)
Winds: from the SSW (200 degrees) at 10 MPH (9 knots; 4.6 m/s)
Visibility: 6 or more miles (10+ km)
Ceiling: 3300 feet AGL
Clouds: scattered clouds at 1300 feet AGL
scattered clouds at 2200 feet AGL
overcast cloud deck at 3300 feet AGL
Weather: no significant weather observed at this time

Forecast for: YWLM (WILLIAMTOWN ARP , AU)
Text: TAF YWLM 271705Z 2718/2818 19010KT 9999 -SHRA SCT012 BKN020
Forecast period: 1800 UTC 27 November 2021 to 0000 UTC 28 November 2021
Forecast type: FROM: standard forecast or significant change
Winds: from the S (190 degrees) at 12 MPH (10 knots; 5.1 m/s)
Visibility: 6 or more miles (10+ km)
Ceiling: 2000 feet AGL
Clouds: scattered clouds at 1200 feet AGL
broken clouds at 2000 feet AGL
Weather: -SHRA  (light rain showers)
Text: BECMG 2800/2802 18015KT 9999 -SHRA SCT025 BKN040
Forecast period: 0000 to 1200 UTC 28 November 2021
Forecast type: BECOMING: Conditions expected to become as follows by 0200 UTC 28 November 2021
Winds: from the S (180 degrees) at 17 MPH (15 knots; 7.7 m/s)
Visibility: 6 or more miles (10+ km)
Ceiling: 4000 feet AGL
Clouds: scattered clouds at 2500 feet AGL
broken clouds at 4000 feet AGL
Weather: -SHRA  (light rain showers)
Text: FM281200 23005KT 9999 NSW BKN040 INTER 2718/2802 4000 SHRA SCT005 BKN010
Forecast period: 1200 to 1800 UTC 28 November 2021
Forecast type: FROM: standard forecast or significant change
Winds: from the SW (230 degrees) at 6 MPH (5 knots; 2.6 m/s)
Visibility: 6 or more miles (10+ km)
Ceiling: 4000 feet AGL
Clouds: broken clouds at 4000 feet AGL
Weather: NSW  (no significant weather)
Text:
Forecast period: 1800 UTC 27 November 2021 to 0200 UTC 28 November 2021
Forecast type: TEMPORARY: The following changes expected for less than half the time period
Visibility: 2.49 miles (4.01 km)
Ceiling: 1000 feet AGL
Clouds: scattered clouds at 500 feet AGL
broken clouds at 1000 feet AGL
Weather: SHRA  (rain showers)